Time,TemperatureF,DewpointF,PressureIn,WindDirection,WindDirectionDegrees,WindSpeedMPH,WindSpeedGustMPH,Humidity,HourlyPrecipIn,Conditions,Clouds,dailyrainin,SoftwareType,DateUTC
2013-03-05 00:02:00,49.1,37.4,30.16,SSE,161,2.0,2.0,64,0.00,CLR,CLR,0.00,WeatherDisplay:10.37,2013-03-05 05:02:00,
2013-03-05 00:06:00,48.9,37.3,30.16,SSE,167,1.0,2.0,64,0.00,CLR,CLR,0.00,WeatherDisplay:10.37,2013-03-05 05:06:00,
2013-03-05 00:11:00,48.8,37.6,30.16,South,183,1.0,2.0,65,0.00,CLR,CLR,0.00,WeatherDisplay:10.37,2013-03-05 05:11:00,
2013-03-05 00:16:00,48.6,37.7,30.16,SW,216,1.0,2.0,66,0.00,CLR,CLR,0.00,WeatherDisplay:10.37,2013-03-05 05:16:00,
2013-03-05 00:21:00,48.1,37.7,30.16,SW,225,2.0,2.0,67,0.00,CLR,CLR,0.00,WeatherDisplay:10.37,2013-03-05 05:21:00,
2013-03-05 00:26:00,47.9,37.9,30.16,SW,225,1.0,2.0,68,0.00,CLR,CLR,0.00,WeatherDisplay:10.37,2013-03-05 05:26:00,
2013-03-05 00:31:00,47.7,38.0,30.15,SW,229,2.0,2.0,69,0.00,CLR,CLR,0.00,WeatherDisplay:10.37,2013-03-05 05:31:00,
2013-03-05 00:36:00,47.4,38.1,30.15,SW,224,1.0,2.0,70,0.00,CLR,CLR,0.00,WeatherDisplay:10.37,2013-03-05 05:36:00,
2013-03-05 00:41:00,47.3,37.6,30.15,South,187,2.0,3.0,69,0.00,CLR,CLR,0.00,WeatherDisplay:10.37,2013-03-05 05:41:00,
2013-03-05 00:46:00,47.6,38.3,30.15,South,175,1.0,2.0,70,0.00,CLR,CLR,0.00,WeatherDisplay:10.37,2013-03-05 05:46:00,
2013-03-05 00:51:00,47.5,38.9,30.16,SSW,205,2.0,4.0,72,0.00,CLR,CLR,0.00,WeatherDisplay:10.37,2013-03-05 05:51:00,
2013-03-05 00:56:00,47.4,38.8,30.16,SW,220,1.0,3.0,72,0.00,CLR,CLR,0.00,WeatherDisplay:10.37,2013-03-05 05:56:00,
2013-03-05 01:01:00,47.1,38.9,30.16,SW,222,2.0,2.0,73,0.00,CLR,CLR,0.00,WeatherDisplay:10.37,2013-03-05 06:01:00,
2013-03-05 01:06:00,47.1,39.3,30.15,SW,228,2.0,3.0,74,0.00,CLR,CLR,0.00,WeatherDisplay:10.37,2013-03-05 06:06:00,
2013-03-05 01:11:00,47.1,38.9,30.15,SW,225,1.0,2.0,73,0.00,CLR,CLR,0.00,WeatherDisplay:10.37,2013-03-05 06:11:00,
2013-03-05 01:16:00,47.1,39.3,30.15,SW,225,1.0,2.0,74,0.00,CLR,CLR,0.00,WeatherDisplay:10.37,2013-03-05 06:16:00,
2013-03-05 01:21:00,47.1,39.3,30.15,SW,225,1.0,1.0,74,0.00,CLR,CLR,0.00,WeatherDisplay:10.37,2013-03-05 06:21:00,
2013-03-05 01:31:00,46.6,38.7,30.15,SSW,202,0.0,1.0,74,0.00,CLR,CLR,0.00,WeatherDisplay:10.37,2013-03-05 06:31:00,
2013-03-05 01:41:00,46.6,39.5,30.15,SW,225,1.0,2.0,76,0.00,CLR,CLR,0.00,WeatherDisplay:10.37,2013-03-05 06:41:00,
2013-03-05 01:46:00,46.4,38.9,30.15,SW,225,1.0,2.0,75,0.00,CLR,CLR,0.00,WeatherDisplay:10.37,2013-03-05 06:46:00,
2013-03-05 01:51:00,46.2,39.4,30.15,SW,225,1.0,2.0,77,0.00,CLR,CLR,0.00,WeatherDisplay:10.37,2013-03-05 06:51:00,
2013-03-05 02:01:00,46.6,39.4,30.15,SW,218,1.0,2.0,76,0.00,CLR,CLR,0.00,WeatherDisplay:10.37,2013-03-05 07:01:00,
2013-03-05 02:06:00,46.6,39.4,30.14,SSW,205,2.0,3.0,76,0.00,CLR,CLR,0.00,WeatherDisplay:10.37,2013-03-05 07:06:00,
2013-03-05 02:11:00,46.6,39.4,30.14,SSW,196,2.0,3.0,76,0.00,CLR,CLR,0.00,WeatherDisplay:10.37,2013-03-05 07:11:00,
2013-03-05 02:16:00,46.8,39.9,30.13,SSW,192,2.0,2.0,77,0.00,CLR,CLR,0.00,WeatherDisplay:10.37,2013-03-05 07:16:00,
2013-03-05 02:21:00,46.8,40.0,30.13,South,189,2.0,3.0,77,0.00,CLR,CLR,0.00,WeatherDisplay:10.37,2013-03-05 07:21:00,
2013-03-05 02:26:00,46.9,40.4,30.13,South,188,2.0,3.0,78,0.00,CLR,CLR,0.00,WeatherDisplay:10.37,2013-03-05 07:26:00,
2013-03-05 02:31:00,46.9,40.4,30.13,SSW,196,1.0,4.0,78,0.00,CLR,CLR,0.00,WeatherDisplay:10.37,2013-03-05 07:31:00,
2013-03-05 02:36:00,46.8,40.3,30.14,SSW,204,1.0,2.0,78,0.00,CLR,CLR,0.00,WeatherDisplay:10.37,2013-03-05 07:36:00,
2013-03-05 02:41:00,46.8,39.9,30.14,SSW,205,1.0,1.0,77,0.00,CLR,CLR,0.00,WeatherDisplay:10.37,2013-03-05 07:41:00,
2013-03-05 02:46:00,46.6,40.1,30.13,SSW,202,1.0,1.0,78,0.00,CLR,CLR,0.00,WeatherDisplay:10.37,2013-03-05 07:46:00,
2013-03-05 02:51:00,46.4,39.6,30.14,SSW,202,0.0,1.0,77,0.00,CLR,CLR,0.00,WeatherDisplay:10.37,2013-03-05 07:51:00,
2013-03-05 02:56:00,46.2,40.0,30.14,SW,216,1.0,2.0,79,0.00,CLR,CLR,0.00,WeatherDisplay:10.37,2013-03-05 07:56:00,
2013-03-05 03:01:00,46.0,39.8,30.14,SW,235,2.0,2.0,79,0.00,CLR,CLR,0.00,WeatherDisplay:10.37,2013-03-05 08:01:00,
2013-03-05 03:06:00,45.9,39.7,30.14,WSW,245,1.0,2.0,79,0.00,CLR,CLR,0.00,WeatherDisplay:10.37,2013-03-05 08:06:00,
2013-03-05 03:11:00,45.9,39.8,30.13,SW,236,1.0,2.0,79,0.00,CLR,CLR,0.00,WeatherDisplay:10.37,2013-03-05 08:11:00,
2013-03-05 03:16:00,45.9,40.0,30.13,SW,225,1.0,1.0,80,0.00,CLR,CLR,0.00,WeatherDisplay:10.37,2013-03-05 08:16:00,
2013-03-05 03:21:00,45.7,39.9,30.13,SW,225,1.0,1.0,80,0.00,CLR,CLR,0.00,WeatherDisplay:10.37,2013-03-05 08:21:00,
2013-03-05 03:31:00,45.0,38.8,30.13,SW,225,0.0,0.0,79,0.00,CLR,CLR,0.00,WeatherDisplay:10.37,2013-03-05 08:31:00,
2013-03-05 03:36:00,44.6,39.1,30.13,SW,225,0.0,0.0,81,0.00,CLR,CLR,0.00,WeatherDisplay:10.37,2013-03-05 08:36:00,
2013-03-05 03:41:00,44.6,39.4,30.13,SW,225,1.0,1.0,82,0.00,CLR,CLR,0.00,WeatherDisplay:10.37,2013-03-05 08:41:00,
2013-03-05 03:51:00,44.8,39.9,30.13,SW,225,1.0,2.0,83,0.00,CLR,CLR,0.00,WeatherDisplay:10.37,2013-03-05 08:51:00,
2013-03-05 03:56:00,44.8,39.9,30.13,SW,225,1.0,2.0,83,0.00,CLR,CLR,0.00,WeatherDisplay:10.37,2013-03-05 08:56:00,
2013-03-05 04:01:00,44.8,40.0,30.13,SW,225,1.0,2.0,83,0.00,CLR,CLR,0.00,WeatherDisplay:10.37,2013-03-05 09:01:00,
2013-03-05 04:06:00,45.0,40.2,30.13,SW,225,2.0,2.0,83,0.00,CLR,CLR,0.00,WeatherDisplay:10.37,2013-03-05 09:06:00,
2013-03-05 04:11:00,45.3,40.1,30.13,SW,224,2.0,3.0,82,0.00,CLR,CLR,0.00,WeatherDisplay:10.37,2013-03-05 09:11:00,
2013-03-05 04:16:00,45.3,39.8,30.13,SW,224,2.0,2.0,81,0.00,CLR,CLR,0.00,WeatherDisplay:10.37,2013-03-05 09:16:00,
2013-03-05 04:21:00,45.3,39.8,30.13,SW,225,2.0,3.0,81,0.00,CLR,CLR,0.00,WeatherDisplay:10.37,2013-03-05 09:21:00,
2013-03-05 04:26:00,45.3,39.8,30.13,SW,225,1.0,3.0,81,0.00,CLR,CLR,0.00,WeatherDisplay:10.37,2013-03-05 09:26:00,
2013-03-05 04:31:00,45.1,39.9,30.13,SW,225,1.0,2.0,82,0.00,CLR,CLR,0.00,WeatherDisplay:10.37,2013-03-05 09:31:00,
2013-03-05 04:36:00,45.0,39.8,30.13,SW,225,1.0,2.0,82,0.00,CLR,CLR,0.00,WeatherDisplay:10.37,2013-03-05 09:36:00,
2013-03-05 04:41:00,45.0,39.8,30.13,SW,225,1.0,2.0,82,0.00,CLR,CLR,0.00,WeatherDisplay:10.37,2013-03-05 09:41:00,
2013-03-05 04:46:00,44.8,40.0,30.13,SW,225,0.0,1.0,83,0.00,CLR,CLR,0.00,WeatherDisplay:10.37,2013-03-05 09:46:00,
2013-03-05 04:51:00,44.8,40.3,30.13,SW,219,1.0,1.0,84,0.00,CLR,CLR,0.00,WeatherDisplay:10.37,2013-03-05 09:51:00,
2013-03-05 04:56:00,44.9,40.4,30.13,SSW,208,1.0,2.0,84,0.00,CLR,CLR,0.00,WeatherDisplay:10.37,2013-03-05 09:56:00,
2013-03-05 05:01:00,44.8,40.5,30.13,SSW,202,1.0,2.0,85,0.00,CLR,CLR,0.00,WeatherDisplay:10.37,2013-03-05 10:01:00,
2013-03-05 05:11:00,44.3,40.4,30.13,SSW,202,1.0,1.0,86,0.00,CLR,CLR,0.00,WeatherDisplay:10.37,2013-03-05 10:11:00,
2013-03-05 05:16:00,44.4,40.8,30.14,SSW,202,1.0,2.0,87,0.00,CLR,CLR,0.00,WeatherDisplay:10.37,2013-03-05 10:16:00,
2013-03-05 05:21:00,44.4,40.8,30.14,SSW,202,0.0,1.0,87,0.00,CLR,CLR,0.00,WeatherDisplay:10.37,2013-03-05 10:21:00,
2013-03-05 05:31:00,44.1,40.4,30.15,WSW,250,2.0,2.0,87,0.00,CLR,CLR,0.00,WeatherDisplay:10.37,2013-03-05 10:31:00,
2013-03-05 05:41:00,44.2,40.6,30.16,WSW,255,2.0,3.0,87,0.00,CLR,CLR,0.00,WeatherDisplay:10.37,2013-03-05 10:41:00,
2013-03-05 05:46:00,44.2,40.5,30.16,WSW,249,1.0,2.0,87,0.00,CLR,CLR,0.00,WeatherDisplay:10.37,2013-03-05 10:46:00,
2013-03-05 05:51:00,44.1,40.4,30.16,WSW,243,1.0,2.0,87,0.00,CLR,CLR,0.00,WeatherDisplay:10.37,2013-03-05 10:51:00,
2013-03-05 06:01:00,44.4,40.8,30.16,SW,234,2.0,2.0,87,0.00,CLR,CLR,0.00,WeatherDisplay:10.37,2013-03-05 11:01:00,
2013-03-05 06:06:00,44.4,40.8,30.16,SW,230,1.0,2.0,87,0.00,FEW,FEW,0.00,WeatherDisplay:10.37,2013-03-05 11:06:00,
2013-03-05 06:11:00,44.2,40.6,30.16,SW,225,0.0,1.0,87,0.00,FEW,FEW,0.00,WeatherDisplay:10.37,2013-03-05 11:11:00,
2013-03-05 06:16:00,43.9,40.6,30.16,SW,225,1.0,2.0,88,0.00,FEW,FEW,0.00,WeatherDisplay:10.37,2013-03-05 11:16:00,
2013-03-05 06:21:00,43.9,40.6,30.16,SSW,211,2.0,2.0,88,0.00,FEW,FEW,0.00,WeatherDisplay:10.37,2013-03-05 11:21:00,
2013-03-05 06:26:00,43.9,40.6,30.16,SSW,205,1.0,2.0,88,0.00,FEW,FEW,0.00,WeatherDisplay:10.37,2013-03-05 11:26:00,
2013-03-05 06:31:00,43.9,40.6,30.16,SW,216,1.0,1.0,88,0.00,FEW,FEW,0.00,WeatherDisplay:10.37,2013-03-05 11:31:00,
2013-03-05 06:41:00,44.2,40.9,30.16,SW,226,1.0,2.0,88,0.00,FEW,FEW,0.00,WeatherDisplay:10.37,2013-03-05 11:41:00,
2013-03-05 06:46:00,44.2,40.9,30.16,SW,226,1.0,2.0,88,0.00,FEW,FEW,0.00,WeatherDisplay:10.37,2013-03-05 11:46:00,
2013-03-05 06:51:00,44.1,40.7,30.17,SW,225,1.0,2.0,88,0.00,FEW,FEW,0.00,WeatherDisplay:10.37,2013-03-05 11:51:00,
2013-03-05 06:56:00,44.1,40.7,30.17,WSW,238,1.0,2.0,88,0.00,FEW,FEW,0.00,WeatherDisplay:10.37,2013-03-05 11:56:00,
2013-03-05 07:01:00,44.4,41.0,30.17,WSW,248,1.0,2.0,88,0.00,FEW,FEW,0.00,WeatherDisplay:10.37,2013-03-05 12:01:00,
2013-03-05 07:06:00,44.9,41.3,30.18,WSW,246,2.0,3.0,87,0.00,FEW,FEW,0.00,WeatherDisplay:10.37,2013-03-05 12:06:00,
2013-03-05 07:11:00,45.7,41.4,30.17,SW,219,2.0,4.0,85,0.00,FEW,FEW,0.00,WeatherDisplay:10.37,2013-03-05 12:11:00,
2013-03-05 07:21:00,46.8,41.9,30.18,SW,217,1.0,2.0,83,0.00,FEW,FEW,0.00,WeatherDisplay:10.37,2013-03-05 12:21:00,
2013-03-05 07:31:00,47.9,42.4,30.18,SSW,212,2.0,3.0,81,0.00,FEW,FEW,0.00,WeatherDisplay:10.37,2013-03-05 12:31:00,
2013-03-05 07:36:00,48.6,42.7,30.18,SSW,199,2.0,3.0,80,0.00,FEW,FEW,0.00,WeatherDisplay:10.37,2013-03-05 12:36:00,
2013-03-05 07:41:00,49.2,43.3,30.18,South,191,1.0,4.0,80,0.00,FEW,FEW,0.00,WeatherDisplay:10.37,2013-03-05 12:41:00,
2013-03-05 07:51:00,50.5,43.9,30.18,SSW,199,2.0,5.0,78,0.00,FEW,FEW,0.00,WeatherDisplay:10.37,2013-03-05 12:51:00,
2013-03-05 08:01:00,52.2,44.2,30.19,SSW,198,1.0,3.0,74,0.00,FEW,FEW,0.00,WeatherDisplay:10.37,2013-03-05 13:01:00,
2013-03-05 08:06:00,53.2,44.4,30.18,SSW,208,3.0,4.0,72,0.00,FEW,FEW,0.00,WeatherDisplay:10.37,2013-03-05 13:06:00,
2013-03-05 08:16:00,54.7,44.7,30.18,SSW,193,3.0,5.0,69,0.00,FEW,FEW,0.00,WeatherDisplay:10.37,2013-03-05 13:16:00,
2013-03-05 08:21:00,55.2,44.8,30.18,SSW,194,2.0,5.0,68,0.00,FEW,FEW,0.00,WeatherDisplay:10.37,2013-03-05 13:21:00,
2013-03-05 08:31:00,56.9,44.0,30.18,South,179,5.0,5.0,62,0.00,FEW,FEW,0.00,WeatherDisplay:10.37,2013-03-05 13:31:00,
2013-03-05 08:41:00,57.0,43.7,30.18,SSW,195,6.0,7.0,61,0.00,FEW,FEW,0.00,WeatherDisplay:10.37,2013-03-05 13:41:00,
2013-03-05 08:51:00,57.9,43.2,30.18,South,190,6.0,9.0,58,0.00,FEW,FEW,0.00,WeatherDisplay:10.37,2013-03-05 13:51:00,
2013-03-05 08:56:00,58.4,43.7,30.18,South,185,7.0,9.0,58,0.00,FEW,FEW,0.00,WeatherDisplay:10.37,2013-03-05 13:56:00,
2013-03-05 09:01:00,58.9,44.1,30.19,South,184,2.0,8.0,58,0.00,FEW,FEW,0.00,WeatherDisplay:10.37,2013-03-05 14:01:00,
2013-03-05 09:06:00,59.1,44.3,30.19,South,188,3.0,7.0,58,0.00,FEW,FEW,0.00,WeatherDisplay:10.37,2013-03-05 14:06:00,
2013-03-05 09:11:00,59.5,44.7,30.19,SSW,203,3.0,7.0,58,0.00,FEW,FEW,0.00,WeatherDisplay:10.37,2013-03-05 14:11:00,
2013-03-05 09:21:00,60.1,44.8,30.19,SSW,201,6.0,8.0,57,0.00,FEW,FEW,0.00,WeatherDisplay:10.37,2013-03-05 14:21:00,
2013-03-05 09:31:00,60.6,44.4,30.19,SSW,203,6.0,9.0,55,0.00,FEW,FEW,0.00,WeatherDisplay:10.37,2013-03-05 14:31:00,
2013-03-05 09:36:00,61.2,44.9,30.18,SSW,200,5.0,7.0,55,0.00,FEW,FEW,0.00,WeatherDisplay:10.37,2013-03-05 14:36:00,
2013-03-05 09:41:00,61.5,45.2,30.18,SSW,202,5.0,8.0,55,0.00,FEW,FEW,0.00,WeatherDisplay:10.37,2013-03-05 14:41:00,
2013-03-05 09:46:00,61.5,44.2,30.19,SSW,207,6.0,8.0,53,0.00,FEW,FEW,0.00,WeatherDisplay:10.37,2013-03-05 14:46:00,
2013-03-05 09:51:00,61.9,44.1,30.19,SW,215,7.0,8.0,52,0.00,FEW,FEW,0.00,WeatherDisplay:10.37,2013-03-05 14:51:00,
2013-03-05 10:01:00,63.3,43.8,30.18,SSW,210,5.0,8.0,49,0.00,FEW,FEW,0.00,WeatherDisplay:10.37,2013-03-05 15:01:00,
2013-03-05 10:06:00,63.8,43.8,30.18,SSW,197,7.0,9.0,48,0.00,FEW,FEW,0.00,WeatherDisplay:10.37,2013-03-05 15:06:00,
2013-03-05 10:11:00,64.1,44.6,30.18,SSW,201,3.0,6.0,49,0.00,FEW,FEW,0.00,WeatherDisplay:10.37,2013-03-05 15:11:00,
2013-03-05 10:16:00,64.4,43.2,30.18,SSW,197,5.0,6.0,46,0.00,FEW,FEW,0.00,WeatherDisplay:10.37,2013-03-05 15:16:00,
2013-03-05 10:21:00,64.6,42.8,30.18,SSW,198,5.0,8.0,45,0.00,FEW,FEW,0.00,WeatherDisplay:10.37,2013-03-05 15:21:00,
2013-03-05 10:31:00,65.5,42.4,30.18,South,189,5.0,9.0,43,0.00,FEW,FEW,0.00,WeatherDisplay:10.37,2013-03-05 15:31:00,
2013-03-05 10:36:00,66.2,41.8,30.18,South,191,7.0,12.0,41,0.00,FEW,FEW,0.00,WeatherDisplay:10.37,2013-03-05 15:36:00,
2013-03-05 10:41:00,65.9,40.3,30.18,SSW,203,3.0,12.0,39,0.00,FEW,FEW,0.00,WeatherDisplay:10.37,2013-03-05 15:41:00,
2013-03-05 10:46:00,66.2,39.8,30.18,SSW,209,6.0,10.0,38,0.00,FEW,FEW,0.00,WeatherDisplay:10.37,2013-03-05 15:46:00,
2013-03-05 10:51:00,66.3,39.9,30.17,SSW,202,5.0,9.0,38,0.00,FEW,FEW,0.00,WeatherDisplay:10.37,2013-03-05 15:51:00,
2013-03-05 11:01:00,66.8,39.7,30.17,SSW,212,8.0,12.0,37,0.00,FEW,FEW,0.00,WeatherDisplay:10.37,2013-03-05 16:01:00,
2013-03-05 11:06:00,66.9,40.5,30.16,SSW,206,9.0,10.0,38,0.00,CLR,CLR,0.00,WeatherDisplay:10.37,2013-03-05 16:06:00,
2013-03-05 11:11:00,67.4,40.9,30.16,SSW,203,7.0,10.0,38,0.00,CLR,CLR,0.00,WeatherDisplay:10.37,2013-03-05 16:11:00,
2013-03-05 11:16:00,68.2,39.5,30.16,SW,214,6.0,10.0,35,0.00,CLR,CLR,0.00,WeatherDisplay:10.37,2013-03-05 16:16:00,
2013-03-05 11:21:00,68.1,40.8,30.16,SSW,212,6.0,14.0,37,0.00,CLR,CLR,0.00,WeatherDisplay:10.37,2013-03-05 16:21:00,
2013-03-05 11:31:00,68.7,39.2,30.16,SW,222,10.0,15.0,34,0.00,CLR,CLR,0.00,WeatherDisplay:10.37,2013-03-05 16:31:00,
2013-03-05 11:41:00,69.2,40.4,30.15,SW,219,8.0,12.0,35,0.00,CLR,CLR,0.00,WeatherDisplay:10.37,2013-03-05 16:41:00,
2013-03-05 11:46:00,69.0,40.2,30.15,SSW,213,8.0,12.0,35,0.00,CLR,CLR,0.00,WeatherDisplay:10.37,2013-03-05 16:46:00,
2013-03-05 11:51:00,69.5,40.6,30.15,SSW,201,6.0,12.0,35,0.00,CLR,CLR,0.00,WeatherDisplay:10.37,2013-03-05 16:51:00,
2013-03-05 11:56:00,70.2,41.3,30.15,SSW,211,6.0,8.0,35,0.00,CLR,CLR,0.00,WeatherDisplay:10.37,2013-03-05 16:56:00,
2013-03-05 12:06:00,70.9,40.3,30.14,SW,221,7.0,10.0,33,0.00,CLR,CLR,0.00,WeatherDisplay:10.37,2013-03-05 17:06:00,
2013-03-05 12:11:00,71.1,40.6,30.14,SW,225,8.0,9.0,33,0.00,CLR,CLR,0.00,WeatherDisplay:10.37,2013-03-05 17:11:00,
2013-03-05 12:21:00,71.2,40.6,30.14,WSW,238,3.0,8.0,33,0.00,CLR,CLR,0.00,WeatherDisplay:10.37,2013-03-05 17:21:00,
2013-03-05 12:31:00,71.9,42.0,30.14,SW,234,7.0,11.0,34,0.00,CLR,CLR,0.00,WeatherDisplay:10.37,2013-03-05 17:31:00,
2013-03-05 12:41:00,71.4,43.1,30.13,SW,217,6.0,9.0,36,0.00,CLR,CLR,0.00,WeatherDisplay:10.37,2013-03-05 17:41:00,
2013-03-05 12:51:00,71.1,42.1,30.13,WSW,239,8.0,15.0,35,0.00,CLR,CLR,0.00,WeatherDisplay:10.37,2013-03-05 17:51:00,
2013-03-05 13:01:00,71.6,42.5,30.13,SW,225,9.0,11.0,35,0.00,CLR,CLR,0.00,WeatherDisplay:10.37,2013-03-05 18:01:00,
2013-03-05 13:06:00,71.6,45.3,30.13,SW,227,7.0,12.0,39,0.00,CLR,CLR,0.00,WeatherDisplay:10.37,2013-03-05 18:06:00,
2013-03-05 13:16:00,72.1,45.1,30.11,SW,218,7.0,11.0,38,0.00,CLR,CLR,0.00,WeatherDisplay:10.37,2013-03-05 18:16:00,
2013-03-05 13:21:00,72.0,45.0,30.11,SW,223,10.0,12.0,38,0.00,CLR,CLR,0.00,WeatherDisplay:10.37,2013-03-05 18:21:00,
2013-03-05 13:31:00,72.4,45.3,30.10,WSW,243,7.0,12.0,38,0.00,CLR,CLR,0.00,WeatherDisplay:10.37,2013-03-05 18:31:00,
2013-03-05 13:41:00,72.7,46.3,30.10,SW,228,3.0,10.0,39,0.00,CLR,CLR,0.00,WeatherDisplay:10.37,2013-03-05 18:41:00,
2013-03-05 13:46:00,73.5,46.3,30.10,WSW,248,3.0,10.0,38,0.00,CLR,CLR,0.00,WeatherDisplay:10.37,2013-03-05 18:46:00,
2013-03-05 13:51:00,73.7,45.8,30.09,West,273,7.0,9.0,37,0.00,CLR,CLR,0.00,WeatherDisplay:10.37,2013-03-05 18:51:00,
2013-03-05 14:01:00,73.5,45.6,30.09,WSW,242,6.0,12.0,37,0.00,CLR,CLR,0.00,WeatherDisplay:10.37,2013-03-05 19:01:00,
2013-03-05 14:06:00,74.1,45.5,30.08,WSW,256,6.0,9.0,36,0.00,CLR,CLR,0.00,WeatherDisplay:10.37,2013-03-05 19:06:00,
2013-03-05 14:11:00,74.5,45.1,30.08,West,271,7.0,10.0,35,0.00,CLR,CLR,0.00,WeatherDisplay:10.37,2013-03-05 19:11:00,
2013-03-05 14:21:00,74.6,45.1,30.08,West,267,7.0,12.0,35,0.00,CLR,CLR,0.00,WeatherDisplay:10.37,2013-03-05 19:21:00,
2013-03-05 14:31:00,75.6,44.4,30.08,WSW,238,7.0,9.0,33,0.00,CLR,CLR,0.00,WeatherDisplay:10.37,2013-03-05 19:31:00,
2013-03-05 14:36:00,75.2,44.9,30.08,SW,227,7.0,11.0,34,0.00,CLR,CLR,0.00,WeatherDisplay:10.37,2013-03-05 19:36:00,
2013-03-05 14:41:00,75.6,43.6,30.07,WSW,242,7.0,10.0,32,0.00,CLR,CLR,0.00,WeatherDisplay:10.37,2013-03-05 19:41:00,
2013-03-05 14:51:00,75.9,44.7,30.06,WSW,244,6.0,12.0,33,0.00,CLR,CLR,0.00,WeatherDisplay:10.37,2013-03-05 19:51:00,
2013-03-05 14:56:00,75.6,44.4,30.06,WSW,250,10.0,15.0,33,0.00,CLR,CLR,0.00,WeatherDisplay:10.37,2013-03-05 19:56:00,
2013-03-05 15:01:00,75.7,43.7,30.06,WSW,243,8.0,13.0,32,0.00,CLR,CLR,0.00,WeatherDisplay:10.37,2013-03-05 20:01:00,
2013-03-05 15:11:00,75.9,43.9,30.06,WSW,239,8.0,12.0,32,0.00,CLR,CLR,0.00,WeatherDisplay:10.37,2013-03-05 20:11:00,
2013-03-05 15:16:00,75.9,43.9,30.07,SW,231,8.0,12.0,32,0.00,CLR,CLR,0.00,WeatherDisplay:10.37,2013-03-05 20:16:00,
2013-03-05 15:21:00,76.0,44.0,30.07,SW,222,12.0,14.0,32,0.00,CLR,CLR,0.00,WeatherDisplay:10.37,2013-03-05 20:21:00,
2013-03-05 15:26:00,76.1,44.9,30.07,SW,226,6.0,13.0,33,0.00,CLR,CLR,0.00,WeatherDisplay:10.37,2013-03-05 20:26:00,
2013-03-05 15:31:00,76.5,44.5,30.07,WSW,246,6.0,9.0,32,0.00,CLR,CLR,0.00,WeatherDisplay:10.37,2013-03-05 20:31:00,
2013-03-05 15:36:00,76.6,44.6,30.07,WSW,247,9.0,16.0,32,0.00,CLR,CLR,0.00,WeatherDisplay:10.37,2013-03-05 20:36:00,
2013-03-05 15:41:00,75.9,44.8,30.06,SW,232,9.0,14.0,33,0.00,CLR,CLR,0.00,WeatherDisplay:10.37,2013-03-05 20:41:00,
2013-03-05 15:46:00,76.5,45.2,30.07,WSW,240,8.0,13.0,33,0.00,CLR,CLR,0.00,WeatherDisplay:10.37,2013-03-05 20:46:00,
2013-03-05 15:51:00,76.3,45.1,30.06,WSW,247,6.0,13.0,33,0.00,CLR,CLR,0.00,WeatherDisplay:10.37,2013-03-05 20:51:00,
2013-03-05 16:01:00,77.0,45.7,30.06,WSW,250,6.0,14.0,33,0.00,CLR,CLR,0.00,WeatherDisplay:10.37,2013-03-05 21:01:00,
2013-03-05 16:06:00,77.0,45.7,30.06,WSW,246,9.0,13.0,33,0.00,CLR,CLR,0.00,WeatherDisplay:10.37,2013-03-05 21:06:00,
2013-03-05 16:11:00,76.2,44.2,30.06,SW,232,8.0,12.0,32,0.00,CLR,CLR,0.00,WeatherDisplay:10.37,2013-03-05 21:11:00,
2013-03-05 16:16:00,76.3,43.4,30.06,WSW,250,8.0,13.0,31,0.00,CLR,CLR,0.00,WeatherDisplay:10.37,2013-03-05 21:16:00,
2013-03-05 16:21:00,76.8,43.0,30.06,West,259,6.0,9.0,30,0.00,FEW,FEW,0.00,WeatherDisplay:10.37,2013-03-05 21:21:00,
2013-03-05 16:26:00,76.6,42.0,30.06,WSW,246,5.0,15.0,29,0.00,FEW,FEW,0.00,WeatherDisplay:10.37,2013-03-05 21:26:00,
2013-03-05 16:36:00,76.3,42.6,30.06,West,262,6.0,14.0,30,0.00,FEW,FEW,0.00,WeatherDisplay:10.37,2013-03-05 21:36:00,
2013-03-05 16:41:00,76.7,42.1,30.06,WSW,244,6.0,9.0,29,0.00,FEW,FEW,0.00,WeatherDisplay:10.37,2013-03-05 21:41:00,
2013-03-05 16:51:00,76.3,42.6,30.05,SW,229,7.0,12.0,30,0.00,FEW,FEW,0.00,WeatherDisplay:10.37,2013-03-05 21:51:00,
2013-03-05 16:56:00,76.5,43.6,30.05,SW,230,6.0,9.0,31,0.00,FEW,FEW,0.00,WeatherDisplay:10.37,2013-03-05 21:56:00,
2013-03-05 17:01:00,76.2,44.2,30.05,SW,224,6.0,9.0,32,0.00,FEW,FEW,0.00,WeatherDisplay:10.37,2013-03-05 22:01:00,
2013-03-05 17:06:00,75.7,44.6,30.05,SW,235,6.0,12.0,33,0.00,FEW,FEW,0.00,WeatherDisplay:10.37,2013-03-05 22:06:00,
2013-03-05 17:11:00,75.3,45.0,30.06,WSW,239,6.0,13.0,34,0.00,FEW,FEW,0.00,WeatherDisplay:10.37,2013-03-05 22:11:00,
2013-03-05 17:16:00,75.4,44.3,30.05,WSW,239,8.0,9.0,33,0.00,FEW,FEW,0.00,WeatherDisplay:10.37,2013-03-05 22:16:00,
2013-03-05 17:26:00,74.9,43.1,30.05,SW,223,8.0,12.0,32,0.00,FEW,FEW,0.00,WeatherDisplay:10.37,2013-03-05 22:26:00,
2013-03-05 17:31:00,74.8,42.2,30.05,SW,219,7.0,12.0,31,0.00,FEW,FEW,0.00,WeatherDisplay:10.37,2013-03-05 22:31:00,
2013-03-05 17:36:00,74.8,41.2,30.05,SW,222,9.0,12.0,30,0.00,FEW,FEW,0.00,WeatherDisplay:10.37,2013-03-05 22:36:00,
2013-03-05 17:41:00,74.6,41.1,30.04,SW,221,7.0,12.0,30,0.00,FEW,FEW,0.00,WeatherDisplay:10.37,2013-03-05 22:41:00,
2013-03-05 17:46:00,74.4,40.1,30.04,SW,228,8.0,12.0,29,0.00,FEW,FEW,0.00,WeatherDisplay:10.37,2013-03-05 22:46:00,
2013-03-05 17:51:00,74.4,40.1,30.04,SW,229,5.0,9.0,29,0.00,FEW,FEW,0.00,WeatherDisplay:10.37,2013-03-05 22:51:00,
2013-03-05 17:56:00,74.1,40.7,30.04,SW,225,9.0,10.0,30,0.00,FEW,FEW,0.00,WeatherDisplay:10.37,2013-03-05 22:56:00,
2013-03-05 18:06:00,73.3,40.9,30.04,SW,225,6.0,10.0,31,0.00,FEW,FEW,0.00,WeatherDisplay:10.37,2013-03-05 23:06:00,
2013-03-05 18:11:00,73.0,41.4,30.05,SW,225,5.0,10.0,32,0.00,FEW,FEW,0.00,WeatherDisplay:10.37,2013-03-05 23:11:00,
2013-03-05 18:16:00,72.6,40.3,30.04,SW,229,6.0,10.0,31,0.00,FEW,FEW,0.00,WeatherDisplay:10.37,2013-03-05 23:16:00,
2013-03-05 18:21:00,72.3,40.0,30.05,SW,228,8.0,12.0,31,0.00,FEW,FEW,0.00,WeatherDisplay:10.37,2013-03-05 23:21:00,
2013-03-05 18:26:00,72.0,40.5,30.05,SW,223,7.0,11.0,32,0.00,FEW,FEW,0.00,WeatherDisplay:10.37,2013-03-05 23:26:00,
2013-03-05 18:31:00,71.6,40.2,30.05,SW,227,10.0,12.0,32,0.00,FEW,FEW,0.00,WeatherDisplay:10.37,2013-03-05 23:31:00,
2013-03-05 18:36:00,71.4,40.0,30.05,SW,227,9.0,12.0,32,0.00,FEW,FEW,0.00,WeatherDisplay:10.37,2013-03-05 23:36:00,
2013-03-05 18:41:00,71.1,39.7,30.05,SW,228,7.0,12.0,32,0.00,FEW,FEW,0.00,WeatherDisplay:10.37,2013-03-05 23:41:00,
2013-03-05 18:46:00,70.9,38.7,30.05,SW,222,8.0,12.0,31,0.00,FEW,FEW,0.00,WeatherDisplay:10.37,2013-03-05 23:46:00,
2013-03-05 18:51:00,70.6,38.5,30.05,SW,220,7.0,10.0,31,0.00,FEW,FEW,0.00,WeatherDisplay:10.37,2013-03-05 23:51:00,
2013-03-05 18:56:00,70.3,39.0,30.05,SW,224,5.0,12.0,32,0.00,FEW,FEW,0.00,WeatherDisplay:10.37,2013-03-05 23:56:00,
2013-03-05 19:01:00,70.2,38.9,30.05,SW,230,6.0,12.0,32,0.00,FEW,FEW,0.00,WeatherDisplay:10.37,2013-03-06 00:01:00,
2013-03-05 19:06:00,69.8,38.6,30.05,SW,233,6.0,9.0,32,0.00,SKC,SKC,0.00,WeatherDisplay:10.37,2013-03-06 00:06:00,
2013-03-05 19:11:00,69.7,39.3,30.05,SW,231,5.0,10.0,33,0.00,SKC,SKC,0.00,WeatherDisplay:10.37,2013-03-06 00:11:00,
2013-03-05 19:21:00,69.0,38.7,30.05,SW,233,5.0,6.0,33,0.00,SKC,SKC,0.00,WeatherDisplay:10.37,2013-03-06 00:21:00,
2013-03-05 19:26:00,68.7,38.4,30.05,SW,234,5.0,8.0,33,0.00,SKC,SKC,0.00,WeatherDisplay:10.37,2013-03-06 00:26:00,
2013-03-05 19:31:00,68.5,38.3,30.05,SW,233,7.0,9.0,33,0.00,SKC,SKC,0.00,WeatherDisplay:10.37,2013-03-06 00:31:00,
2013-03-05 19:36:00,68.5,38.2,30.05,WSW,237,6.0,10.0,33,0.00,SKC,SKC,0.00,WeatherDisplay:10.37,2013-03-06 00:36:00,
2013-03-05 19:41:00,68.2,38.0,30.05,SW,236,5.0,9.0,33,0.00,SKC,SKC,0.00,WeatherDisplay:10.37,2013-03-06 00:41:00,
2013-03-05 19:46:00,68.0,37.0,30.05,SW,224,6.0,10.0,32,0.00,SKC,SKC,0.00,WeatherDisplay:10.37,2013-03-06 00:46:00,
2013-03-05 19:51:00,68.0,37.0,30.04,SW,222,6.0,9.0,32,0.00,SKC,SKC,0.00,WeatherDisplay:10.37,2013-03-06 00:51:00,
2013-03-05 19:56:00,67.8,36.8,30.04,SW,226,6.0,9.0,32,0.00,SKC,SKC,0.00,WeatherDisplay:10.37,2013-03-06 00:56:00,
2013-03-05 20:01:00,67.5,35.7,30.04,SW,225,5.0,7.0,31,0.00,SKC,SKC,0.00,WeatherDisplay:10.37,2013-03-06 01:01:00,
2013-03-05 20:06:00,67.5,35.7,30.04,SW,227,6.0,10.0,31,0.00,SKC,SKC,0.00,WeatherDisplay:10.37,2013-03-06 01:06:00,
2013-03-05 20:11:00,67.3,35.6,30.04,SW,225,7.0,9.0,31,0.00,SKC,SKC,0.00,WeatherDisplay:10.37,2013-03-06 01:11:00,
2013-03-05 20:16:00,67.3,35.6,30.04,SW,224,7.0,10.0,31,0.00,SKC,SKC,0.00,WeatherDisplay:10.37,2013-03-06 01:16:00,
2013-03-05 20:21:00,67.1,35.4,30.04,SW,225,7.0,10.0,31,0.00,SKC,SKC,0.00,WeatherDisplay:10.37,2013-03-06 01:21:00,
2013-03-05 20:26:00,67.0,35.4,30.04,SW,221,7.0,12.0,31,0.00,SKC,SKC,0.00,WeatherDisplay:10.37,2013-03-06 01:26:00,
2013-03-05 20:31:00,66.8,35.2,30.03,SW,218,7.0,9.0,31,0.00,SKC,SKC,0.00,WeatherDisplay:10.37,2013-03-06 01:31:00,
2013-03-05 20:41:00,66.5,37.3,30.03,SW,216,6.0,10.0,34,0.00,SKC,SKC,0.00,WeatherDisplay:10.37,2013-03-06 01:41:00,
2013-03-05 20:46:00,66.2,39.1,30.03,SW,220,10.0,13.0,37,0.00,SKC,SKC,0.00,WeatherDisplay:10.37,2013-03-06 01:46:00,
2013-03-05 20:51:00,66.0,39.7,30.03,SW,220,7.0,9.0,38,0.00,SKC,SKC,0.00,WeatherDisplay:10.37,2013-03-06 01:51:00,
2013-03-05 21:01:00,65.8,41.5,30.03,SW,228,7.0,12.0,41,0.00,SKC,SKC,0.00,WeatherDisplay:10.37,2013-03-06 02:01:00,
2013-03-05 21:06:00,65.5,42.4,30.04,SW,233,7.0,12.0,43,0.00,SKC,SKC,0.00,WeatherDisplay:10.37,2013-03-06 02:06:00,
2013-03-05 21:16:00,65.1,44.4,30.04,SW,221,5.0,9.0,47,0.00,SKC,SKC,0.00,WeatherDisplay:10.37,2013-03-06 02:16:00,
2013-03-05 21:21:00,65.1,46.0,30.04,SW,220,6.0,8.0,50,0.00,SKC,SKC,0.00,WeatherDisplay:10.37,2013-03-06 02:21:00,
2013-03-05 21:26:00,64.8,46.8,30.04,SW,217,6.0,12.0,52,0.00,SKC,SKC,0.00,WeatherDisplay:10.37,2013-03-06 02:26:00,
2013-03-05 21:31:00,64.8,47.7,30.04,SW,216,5.0,13.0,54,0.00,SKC,SKC,0.00,WeatherDisplay:10.37,2013-03-06 02:31:00,
2013-03-05 21:41:00,64.3,49.2,30.04,SW,214,5.0,10.0,58,0.00,SKC,SKC,0.00,WeatherDisplay:10.37,2013-03-06 02:41:00,
2013-03-05 21:46:00,64.0,49.4,30.04,SW,214,7.0,12.0,59,0.00,SKC,SKC,0.00,WeatherDisplay:10.37,2013-03-06 02:46:00,
2013-03-05 21:51:00,63.9,50.1,30.04,SW,216,6.0,9.0,61,0.00,SKC,SKC,0.00,WeatherDisplay:10.37,2013-03-06 02:51:00,
2013-03-05 21:56:00,63.7,50.8,30.03,SW,214,9.0,12.0,63,0.00,SKC,SKC,0.00,WeatherDisplay:10.37,2013-03-06 02:56:00,
2013-03-05 22:01:00,63.5,51.1,30.04,SW,217,6.0,10.0,64,0.00,SKC,SKC,0.00,WeatherDisplay:10.37,2013-03-06 03:01:00,
2013-03-05 22:06:00,63.3,51.8,30.03,SW,220,7.0,9.0,66,0.00,CLR,CLR,0.00,WeatherDisplay:10.37,2013-03-06 03:06:00,
2013-03-05 22:11:00,63.1,52.0,30.04,SW,224,7.0,9.0,67,0.00,CLR,CLR,0.00,WeatherDisplay:10.37,2013-03-06 03:11:00,
2013-03-05 22:16:00,63.0,52.2,30.04,SW,217,6.0,9.0,68,0.00,CLR,CLR,0.00,WeatherDisplay:10.37,2013-03-06 03:16:00,
2013-03-05 22:21:00,63.0,53.0,30.03,SW,220,12.0,12.0,70,0.00,CLR,CLR,0.00,WeatherDisplay:10.37,2013-03-06 03:21:00,
2013-03-05 22:26:00,62.9,53.0,30.03,SW,221,7.0,12.0,70,0.00,CLR,CLR,0.00,WeatherDisplay:10.37,2013-03-06 03:26:00,
2013-03-05 22:36:00,62.6,53.4,30.03,SW,218,8.0,12.0,72,0.00,CLR,CLR,0.00,WeatherDisplay:10.37,2013-03-06 03:36:00,
2013-03-05 22:41:00,62.6,53.4,30.03,SW,215,10.0,13.0,72,0.00,CLR,CLR,0.00,WeatherDisplay:10.37,2013-03-06 03:41:00,
2013-03-05 22:46:00,62.6,53.8,30.03,SW,217,6.0,13.0,73,0.00,CLR,CLR,0.00,WeatherDisplay:10.37,2013-03-06 03:46:00,
2013-03-05 22:56:00,62.6,54.2,30.03,SW,230,6.0,9.0,74,0.00,CLR,CLR,0.00,WeatherDisplay:10.37,2013-03-06 03:56:00,
2013-03-05 23:01:00,62.6,54.2,30.03,SW,224,7.0,10.0,74,0.00,CLR,CLR,0.00,WeatherDisplay:10.37,2013-03-06 04:01:00,
2013-03-05 23:06:00,62.6,54.6,30.03,SSW,211,6.0,9.0,75,0.00,BKN,BKN,0.00,WeatherDisplay:10.37,2013-03-06 04:06:00,
2013-03-05 23:11:00,62.8,55.1,30.03,SW,216,7.0,9.0,76,0.00,BKN,BKN,0.00,WeatherDisplay:10.37,2013-03-06 04:11:00,
2013-03-05 23:16:00,63.0,55.3,30.03,SW,219,6.0,12.0,76,0.00,BKN,BKN,0.00,WeatherDisplay:10.37,2013-03-06 04:16:00,
2013-03-05 23:26:00,63.0,55.3,30.03,SW,228,5.0,10.0,76,0.00,BKN,BKN,0.00,WeatherDisplay:10.37,2013-03-06 04:26:00,
2013-03-05 23:36:00,63.1,55.4,30.03,SW,218,7.0,10.0,76,0.00,BKN,BKN,0.00,WeatherDisplay:10.37,2013-03-06 04:36:00,
2013-03-05 23:41:00,63.3,55.6,30.03,SW,219,7.0,12.0,76,0.00,BKN,BKN,0.00,WeatherDisplay:10.37,2013-03-06 04:41:00,
2013-03-05 23:46:00,63.5,56.5,30.02,SW,222,9.0,12.0,78,0.00,BKN,BKN,0.00,WeatherDisplay:10.37,2013-03-06 04:46:00,
2013-03-05 23:51:00,63.6,56.6,30.02,SW,220,8.0,12.0,78,0.00,BKN,BKN,0.00,WeatherDisplay:10.37,2013-03-06 04:51:00,
2013-03-05 23:56:00,63.7,56.7,30.01,SW,222,6.0,13.0,78,0.00,BKN,BKN,0.00,WeatherDisplay:10.37,2013-03-06 04:56:00,